This is the latest recevied weather packets stored in our database for station/object G1OCN-WX. If no packets are shown the sender has not sent any weather packets the latest 10 day(s).
| Time | Temp. | Humidity | Pressure | Rain* | Wind** | Luminosity | Snow |
|---|---|---|---|---|---|---|---|
| 1787850270 | 18.89° C | 79% | 1007.9 hPa | 0 mm | - | - | - |
| 1787849370 | 18.89° C | 80% | 1008.1 hPa | 0 mm | - | - | - |
| 1787848470 | 18.89° C | 80% | 1008.2 hPa | 0 mm | - | - | - |
| 1787847570 | 18.89° C | 79% | 1008.4 hPa | 0 mm | - | - | - |
| 1787846670 | 19.44° C | 78% | 1008.4 hPa | 0 mm | - | - | - |
| 1787845770 | 20° C | 77% | 1008.4 hPa | 0 mm | - | - | - |
| 1787844870 | 20° C | 78% | 1008.3 hPa | 0 mm | - | - | - |
| 1787843970 | 19.44° C | 79% | 1008.5 hPa | 0 mm | - | - | - |
| 1787843070 | 19.44° C | 78% | 1008.8 hPa | 0 mm | - | - | - |
| 1787842170 | 20° C | 78% | 1008.8 hPa | 0 mm | - | - | - |
| 1787841270 | 20° C | 77% | 1008.6 hPa | 0 mm | - | - | - |
| 1787840370 | 19.44° C | 80% | 1008.5 hPa | 0 mm | - | - | - |
| 1787839469 | 20° C | 80% | 1008.4 hPa | 0 mm | - | - | - |
| 1787838569 | 19.44° C | 80% | 1008.4 hPa | 0 mm | - | - | - |
| 1787837669 | 19.44° C | 79% | 1008.4 hPa | 0 mm | - | - | - |
| 1787836769 | 19.44° C | 81% | 1008.4 hPa | 0 mm | - | - | - |
| 1787835869 | 19.44° C | 81% | 1008.5 hPa | 0 mm | - | - | - |
| 1787834969 | 18.89° C | 82% | 1008.3 hPa | 0 mm | - | - | - |
| 1787834069 | 18.89° C | 82% | 1008.2 hPa | 0 mm | - | - | - |
| 1787833169 | 19.44° C | 81% | 1008.2 hPa | 0 mm | - | - | - |
| 1787832269 | 18.89° C | 80% | 1008.2 hPa | 0 mm | - | - | - |
| 1787831369 | 18.89° C | 82% | 1008.4 hPa | 0 mm | - | - | - |
| 1787830469 | 18.89° C | 80% | 1008.3 hPa | 0 mm | - | - | - |
| 1787829569 | 19.44° C | 78% | 1008.3 hPa | 0 mm | - | - | - |
| 1787828669 | 19.44° C | 80% | 1008.1 hPa | 0 mm | - | - | - |
* Rain latest hour (hover to see other rain measurements)
** Current wind speed in m/s (hover to see current wind gust speed)